Home > Weather > Keflavík > Past weeks

Flag for Iceland Weather for the Past 2 Weeks in Keflavík, Iceland

Now
30 °F

Light mixture of precip. Scattered clouds.


Feels Like: 21 °F
Forecast: N/A
Wind: 12 mph from East

Location: Keflavikurflugvollur

Current Time: Feb 11, 2016 at 3:18:23 PM

Latest Report: Feb 11, 2016 at 3:00 PM


Visibility: N/A

Pressure: 29.50 "Hg

Humidity: 93%

Dew point: 28 °F

Location of KeflavíkLocation

Historic Weather in Keflavík — Graph

°F

Keflavík Temperature Yesterday

Maximum temperature yesterday: 32 °F (at 1:30 PM)
Minimum temperature yesterday: 27 °F (at 4:00 AM)
Average temperature yesterday: 29 °F

High & Low Weather Summary for the Past Weeks

 TemperatureHumidityPressure
High37 °F (Feb 4, 8:30 AM)100% (Jan 27, 2:00 PM)29.98 "Hg (Jan 27, 2:00 PM)
Low18 °F (Jan 31, 5:00 AM)54% (Jan 31, 10:00 AM)28.53 "Hg (Feb 5, 5:30 PM)
Average29 °F77%29.20 "Hg
* Reported Jan 27 2:00 PM — Feb 11 2:00 PM, Keflavík, Weather by CustomWeather, © 2016

Note: Actual official high and low records may vary slightly from our data, if they occured in-between our weather recording intervals... More about our weather records

Advertising

Keflavík Weather History for the Previous 24 Hours

 ConditionsComfort  
Time TempWeatherWind HumidityBarometerVisibility
2:00 PM
Thu, Feb 11
30 °FLight mixture of precip. Scattered clouds.12 mph93%29.50 "HgN/A
1:30 PM30 °FLight mixture of precip. Scattered clouds.9 mph100%29.50 "HgN/A
1:00 PM28 °FLight mixture of precip. Scattered clouds.12 mph100%29.50 "HgN/A
12:31 PM28 °FLight mixture of precip. Scattered clouds.10 mph100%29.50 "HgN/A
12:00 PM30 °FLight mixture of precip. Broken clouds.7 mph100%29.50 "HgN/A
11:31 AM30 °FLight mixture of precip. Broken clouds.7 mph100%29.50 "HgN/A
11:00 AM30 °FSnow showers. Fog.10 mph100%29.50 "Hg1 mi
10:30 AM28 °FLight mixture of precip. Broken clouds.10 mph93%29.50 "HgN/A
10:00 AM28 °FLight mixture of precip. Broken clouds.12 mph100%29.50 "HgN/A
9:33 AM28 °FLight mixture of precip. Partly cloudy.12 mph100%29.50 "HgN/A
9:00 AM30 °FSnow flurries. Partly cloudy.12 mph100%29.50 "HgN/A
8:31 AM30 °FSnow flurries. Partly cloudy.10 mph100%29.50 "HgN/A
8:00 AM30 °FSnow flurries. Partly cloudy.8 mph100%29.50 "Hg5 mi
7:30 AM30 °FSnow showers. Partly cloudy.9 mph100%29.50 "Hg1 mi
7:00 AM30 °FSnow showers. Partly cloudy.8 mph100%29.50 "Hg1 mi
6:30 AM30 °FSnow flurries. Passing clouds.10 mph100%29.50 "HgN/A
6:00 AM30 °FSnow flurries. Passing clouds.9 mph93%29.50 "Hg4 mi
5:30 AM30 °FLight mixture of precip. Passing clouds.13 mph93%29.50 "HgN/A
5:00 AM30 °FSnow flurries. Partly cloudy.7 mph86%29.50 "Hg4 mi
4:30 AM30 °FSnow flurries. Partly cloudy.7 mph80%29.50 "Hg4 mi
4:00 AM28 °FLight mixture of precip. Partly cloudy.12 mph80%29.50 "HgN/A
3:30 AM28 °FLight mixture of precip. Partly cloudy.13 mph86%29.50 "HgN/A
3:00 AM28 °FPassing clouds.13 mph86%29.53 "HgN/A
2:00 AM28 °FLight mixture of precip. Passing clouds.5 mph80%29.56 "HgN/A
1:30 AM27 °FLight mixture of precip. Passing clouds.8 mph80%29.56 "HgN/A
1:00 AM28 °FLight mixture of precip. Passing clouds.10 mph80%29.56 "HgN/A
12:00 AM28 °FLight mixture of precip. Passing clouds.12 mph74%29.56 "HgN/A
11:30 PM
Wed, Feb 10
27 °FClear.13 mph74%29.56 "Hg10 mi
11:00 PM28 °FClear.10 mph69%29.56 "Hg10 mi
10:30 PM28 °FClear.8 mph69%29.59 "Hg10 mi
10:00 PM27 °FClear.8 mph69%29.59 "Hg10 mi
9:00 PM27 °FClear.9 mph69%29.59 "Hg10 mi
8:30 PM28 °FClear.7 mph64%29.59 "Hg10 mi
8:00 PM27 °FClear.6 mph74%29.59 "Hg10 mi
7:30 PM28 °FClear.7 mph69%29.59 "Hg10 mi
7:00 PM28 °FClear.6 mph69%29.59 "Hg10 mi
6:30 PM28 °FClear.8 mph74%29.59 "Hg10 mi
6:00 PM30 °FClear.7 mph69%29.59 "Hg10 mi
5:30 PM30 °FSunny.6 mph64%29.62 "Hg10 mi
5:00 PM30 °FSunny.6 mph69%29.62 "Hg10 mi
4:30 PM30 °FSunny.7 mph69%29.62 "Hg10 mi
4:00 PM32 °FSunny.3 mph69%29.62 "Hg10 mi
3:30 PM32 °FSunny.1 mph64%29.62 "Hg10 mi
3:00 PM32 °FSunny.1 mph60%29.62 "Hg10 mi
Weather by CustomWeather, © 2016

See weather overviewHow to use our weather pages